#timestamp,LO_Frequency,Hit,StdDev 
1674554415.9,286047001.7,N
1674554435.7,286047000.1,N
1674554455.5,286047001.1,N
1674554475.4,286046998.7,N
1674554495.2,286047000.5,N
1674554515.0,286047002.5,N
1674554516.0,286047002.5,N
1674554535.8,286047000.4,N
1674554555.6,286047002.6,N
1674554575.5,286046999.7,N
1674554595.3,286047001.8,N
1674554615.1,286047001.7,N
1674554635.9,286047003.4,N
1674554655.7,286047005.8,Y
1674554675.6,286047005.4,P
1674554695.4,286047001.7,N
1674554715.2,286047002.5,N
1674554735.1,286046998.5,N
1674554736.0,286046998.5,N
1674554755.8,286047000.5,N
1674554775.6,286047000.4,N
1674554795.5,286047002.2,N
1674554815.3,286046998.6,N
1674554835.2,286046996.5,N
1674554855.9,286046998.4,N
1674554875.7,286046998.4,N
1674554895.6,286046997.2,N
1674554915.4,286046999.6,N
1674554935.2,286046999.3,N
1674554955.1,286046999.3,N
1674554956.0,286046999.3,N
1674554975.8,286046998.6,N
1674554995.7,286047000.0,N
1674555015.5,286046998.2,N
1674555035.3,286046998.9,N
1674555055.2,286046997.9,N
1674555075.9,286046995.5,N
1674555095.7,286046996.3,N
1674555115.6,286046995.4,N
1674555135.4,286046999.5,N
1674555155.2,286047000.5,N
1674555175.1,286047000.9,N
1674555176.0,286047000.9,N
1674555195.8,286046999.8,N
1674555215.7,286047000.3,N
1674555235.5,286047002.8,N
1674555255.4,286047000.6,N
1674555275.2,286047011.9,Y
1674555295.1,286047003.8,P
1674555296.0,286047003.8,N
1674555315.8,286047004.1,N
1674555335.6,286047005.9,N
1674555355.5,286047003.5,N
1674555375.3,286047001.6,N
1674555395.2,286046999.7,N
1674555415.0,286047000.3,N
1674555415.9,286047000.3,N
1674555435.7,286046998.5,N
1674555455.6,286047000.0,N
1674555475.4,286046998.3,N
1674555495.3,286047001.1,N
1674555515.1,286047000.9,N
1674555516.0,286047000.9,N
1674555535.8,286047002.6,N
1674555555.7,286047001.5,N
1674555575.5,286046999.9,N
1674555595.3,286047002.2,N
1674555615.2,286047003.9,N
1674555635.0,286047001.8,N
1674555635.9,286047001.8,N
1674555655.8,286047000.8,N
1674555675.6,286047000.0,N
1674555695.4,286046999.1,N
1674555715.3,286047000.7,N
1674555735.1,286046999.9,N
1674555755.9,286047001.4,N
1674555775.7,286047003.1,N
1674555795.5,286047005.9,Y
1674555815.4,286047002.2,P
1674555835.2,286046999.7,N
1674555855.1,286047002.4,N
1674555856.0,286047002.4,N
1674555875.8,286047002.1,N
1674555895.6,286047000.6,N
1674555915.5,286047000.8,N
1674555935.3,286046998.2,N
1674555955.1,286046999.1,N
1674555975.9,286046996.5,N
1674555995.7,286046996.8,N
1674556015.6,286046996.9,N
1674556035.4,286046997.2,N
1674556055.2,286046994.9,N
1674556075.1,286046997.6,N
1674556076.0,286046997.6,N
1674556095.8,286046998.7,N
1674556115.7,286046998.4,N
1674556135.5,286046996.9,N
1674556155.3,286046999.0,N
1674556175.2,286047001.1,N
1674556195.0,286046997.5,N
1674556195.9,286046997.5,N
1674556215.7,286046997.8,N
1674556235.6,286047000.5,N
1674556255.4,286047001.3,N
1674556275.3,286047002.0,N
1674556295.1,286046999.8,N
1674556296.0,286046999.8,N
1674556315.8,286047002.8,N
1674556335.7,286046999.4,N
1674556355.5,286046998.7,N
1674556375.3,286047001.0,N
1674556395.2,286046999.7,N
1674556415.0,286046998.8,N
1674556415.9,286046998.8,N
1674556435.8,286046998.1,N
1674556455.6,286047000.1,N
1674556475.4,286047002.4,N
1674556495.3,286047001.5,N
1674556515.1,286047004.3,N
1674556535.8,286046999.9,N
1674556555.7,286047000.1,N
1674556575.5,286046999.7,N
1674556595.4,286046999.8,N
1674556615.2,286047001.6,N
1674556635.0,286047003.0,N
1674556635.9,286047003.0,N
1674556655.8,286047004.4,N
1674556675.6,286047003.1,N
1674556695.4,286047001.9,N
1674556715.3,286047002.5,N
1674556735.1,286047001.4,N
1674556755.9,286047003.8,N
1674556775.7,286047003.7,N
1674556795.5,286047003.2,N
1674556815.4,286047005.3,N
1674556835.2,286047004.0,N
1674556855.0,286047002.3,N
1674556856.0,286047002.3,N
1674556905.8,286046996.7,E
1674556915.7,286046998.7,N
1674556935.6,286047000.6,P
1674556955.4,286047004.0,P
1674556975.3,286047002.5,N
1674556995.1,286047000.0,N
1674556996.0,286047000.0,N
1674557015.8,286047002.0,N
1674557035.7,286047002.6,N
1674557055.5,286047004.0,N
1674557075.4,286047001.5,N
1674557095.2,286047002.0,N
1674557115.0,286047003.4,N
1674557115.9,286047003.4,N
1674557135.8,286047004.4,N
1674557155.6,286047003.0,N
1674557175.4,286047003.3,N
1674557195.3,286047005.9,Y
1674557215.1,286047004.1,P
1674557235.9,286047003.8,P
1674557255.7,286047001.6,N
1674557275.5,286046999.0,N
1674557295.4,286046998.2,N
1674557315.2,286047000.0,N
1674557335.0,286047001.7,N
1674557335.9,286047001.7,N
1674557355.8,286047002.2,N
1674557375.6,286047001.5,N
1674557395.5,286047000.1,N
1674557415.3,286047002.7,N
1674557435.1,286047000.5,N
1674557455.9,286046998.5,N
1674557475.7,286046998.2,N
1674557495.5,286047002.6,N
1674557515.4,286047002.1,N
1674557535.2,286047001.4,N
1674557555.1,286047002.5,N
1674557556.0,286047002.5,N
1674557575.8,286046997.0,N
1674557595.6,286046999.5,N
1674557615.5,286046999.4,N
1674557635.3,286046998.7,N
1674557655.1,286047001.0,N
1674557675.9,286047002.2,N
1674557695.7,286047003.6,N
1674557715.6,286047001.4,N
1674557735.4,286047001.6,N
1674557755.2,286046999.7,N
1674557775.1,286047003.1,N
1674557776.0,286047003.1,N
1674557795.8,286047002.4,N
1674557815.6,286046998.2,N
1674557835.5,286047001.6,N
1674557855.3,286047001.8,N
1674557875.2,286047004.3,N
1674557895.9,286047004.0,N
1674557915.7,286047000.2,N
1674557935.6,286047000.0,N
1674557955.4,286047003.4,N
1674557975.2,286047003.6,N
1674557995.1,286047003.6,N
1674557996.0,286047003.6,N
